This demonstration page uses our WeatherBlox Daily Observations layout. Learn more.

Left ArrowRight Arrow

39.29038, -76.61219

Hourly Observations for August 29, 2020

Temp ( °F °C ) Dew Point ( °F °C ) Humidity (%) Winds ( mph kmh ) Pressure ( in mb ) Visibility ( mi km ) Precip ( " mm )
12:54 am 00:54 Cloudy 74 23.3 71 21.7 91 91 SSW 5 7 29.80 1009 9 14 0.00 0.00
1:54 am 01:54 Mostly Cloudy with Light Rain 73 22.8 71 21.7 94 94 S 3 6 29.75 1007 5 8 0.11 2.79
2:36 am 02:36 Cloudy 73 22.8 71 21.7 94 94 SSW 5 7 29.75 1008 9 14 0.01 0.25
2:54 am 02:54 Cloudy 73 22.8 71 21.7 94 94 S 7 11 29.75 1007 9 14 0.01 0.25
3:54 am 03:54 Cloudy 73 22.8 71 21.7 94 94 Calm 29.71 1006 10 16 0.00 0.00
4:47 am 04:47 Cloudy 73 22.8 70 21.1 90 90 VRB 3 6 29.71 1006 10 16 0.00 0.00
4:54 am 04:54 Cloudy 73 22.8 70 21.1 90 90 W 3 6 29.71 1006 10 16 0.00 0.00
5:54 am 05:54 Cloudy 73 22.8 71 21.7 94 94 SSW 3 6 29.69 1005 10 16 0.00 0.00
6:54 am 06:54 Cloudy 73 22.8 71 21.7 94 94 SW 6 9 29.68 1005 7 11 0.00 0.00
7:54 am 07:54 Cloudy with Light Rain 73 22.8 71 21.7 94 94 W 5 7 29.68 1005 8 13 0.01 0.25
8:54 am 08:54 Cloudy 74 23.3 72 22.2 94 94 W 5 7 29.67 1005 10 16 0.01 0.25
9:54 am 09:54 Cloudy with Light Rain 75 23.9 73 22.8 94 94 WSW 5 7 29.65 1004 9 14 0.00 0.00
10:54 am 10:54 Cloudy 78 25.6 74 23.3 87 87 SW 10 17 29.62 1003 10 16 0.01 0.25
11:13 am 11:13 Cloudy 78 25.6 75 23.9 90 90 SW 6 9 29.62 1003 10 16 0.00 0.00
11:54 am 11:54 Cloudy 79 26.1 74 23.3 85 85 SW 9 15 29.61 1003 10 16 0.00 0.00
12:35 pm 12:35 Cloudy 79 26.1 75 23.9 88 88 SSW 6 9 29.59 1002 10 16 0.00 0.00
12:54 pm 12:54 Cloudy 81 27.2 75 23.9 82 82 SW 9 15 29.57 1002 10 16 0.00 0.00
1:25 pm 13:25 Mostly Cloudy 82 27.8 74 23.3 77 77 SW 16 26 29.56 1001 10 16 0.00 0.00
1:54 pm 13:54 Mostly Cloudy 83 28.3 73 22.8 72 72 WSW 15 24 29.56 1001 10 16 0.00 0.00
2:54 pm 14:54 Cloudy 84 28.9 72 22.2 67 67 W 15 24 29.52 1000 10 16 0.00 0.00
3:06 pm 15:06 Mostly Cloudy 84 28.9 72 22.2 67 67 W 12 19 29.51 999 10 16 0.00 0.00
3:54 pm 15:54 Mostly Cloudy 85 29.4 73 22.8 68 68 W 10 17 29.51 999 10 16 0.00 0.00
4:54 pm 16:54 Partly Cloudy 85 29.4 73 22.8 68 68 W 8 13 29.52 1000 10 16 0.00 0.00
5:54 pm 17:54 Mostly Sunny 85 29.4 72 22.2 65 65 W 7 11 29.53 1000 10 16 0.00 0.00
6:54 pm 18:54 Mostly Sunny 85 29.4 72 22.2 65 65 SW 7 11 29.53 1000 10 16 0.00 0.00
7:54 pm 19:54 Partly Cloudy with Light Rain 80 26.7 73 22.8 79 79 W 7 11 29.54 1000 10 16 0.00 0.00
8:54 pm 20:54 Mostly Clear 81 27.2 70 21.1 69 69 W 8 13 29.57 1001 10 16 0.00 0.00
9:54 pm 21:54 Mostly Clear 78 25.6 66 18.9 67 67 WNW 8 13 29.60 1003 10 16 0.00 0.00
10:54 pm 22:54 Mostly Clear 77 25 64 17.8 64 64 WNW 13 20 29.63 1004 10 16 0.00 0.00
11:54 pm 23:54 Mostly Clear 76 24.4 62 16.7 62 62 WNW 13 20 29.66 1005 10 16 0.00 0.00

Powered by AerisWeather